{"data":{"norad_id":58605,"intl_designator":"2023-200S","name":"STARLINK-31038","alt_names":[],"object_type":"PAYLOAD","status":"ACTIVE","operator":null,"country":"US","launch_date":"2023-12-19","launch_site_code":"AFETR","launch_vehicle":null,"mission":null,"orbit_class":"UNKNOWN","rcs_meters":null,"size_class":null,"mass_kg":null,"dimensions":null,"purposes":["comms"],"wikipedia_slug":null,"has_3d_model":false,"image_url":null,"decayed_at":null,"tle_current":{"epoch":"2026-09-19T23:10:01.682400Z","epoch_age_seconds":196093,"freshness":"STALE","line1":"1 58605U 23200S   26262.96529725  .00110309  00000+0  19039-2 0  9991","line2":"2 58605  42.9949 137.7303 0021305 229.4736 130.4268 15.49671332153487","mean_motion":15.49671332,"eccentricity":0.0021305,"inclination_deg":42.9949,"raan_deg":137.7303,"arg_perigee_deg":229.4736,"mean_anomaly_deg":130.4268,"bstar":0.0019039,"rev_number":15348,"period_min":92.922929544134,"perigee_km":403.20827579818,"apogee_km":432.16528091777,"semimajor_km":6795.823778358,"source":"CELESTRAK","updated_at":"2026-09-21T09:00:33.920067Z"}}}